EW9952 Weather Reports


Display with metric or nautical units.
time (UTC)temp
F
wind
direction
speed
MPH
gust
MPH
rain 1hr
in
rain 24hr
in
rain mn
in
humidity
%
barometer
mb
20260505213820 56 294 0.0 0.0 0.00 0.00 0.00 38 1007.4
20260505213314 56 250 0.0 0.0 0.00 0.00 0.00 39 1007.4
20260505212808 56 237 0.0 1.0 0.00 0.00 0.00 37 1007.6
20260505211756 56 318 0.0 0.0 0.00 0.00 0.00 37 1007.4
20260505211250 56 279 0.0 1.0 0.00 0.00 0.00 39 1007.4
20260505210245 56 295 0.0 1.0 0.00 0.00 0.00 35 1007.6
20260505205746 56 271 0.0 1.0 0.00 0.00 0.00 35 1007.4
20260505205246 56 226 0.0 1.0 0.00 0.00 0.00 38 1007.6
20260505204745 56 267 0.0 4.0 0.00 0.00 0.00 35 1007.6
20260505203745 56 291 0.0 0.0 0.00 0.00 0.00 36 1007.4
20260505203245 56 309 0.0 0.0 0.00 0.00 0.00 38 1007.6
20260505202746 56 272 0.0 0.0 0.00 0.00 0.00 35 1007.8
20260505202246 56 279 0.0 1.0 0.00 0.00 0.00 36 1007.9
20260505201745 56 318 0.0 1.0 0.00 0.00 0.00 36 1007.9
20260505201246 56 313 0.0 1.0 0.00 0.00 0.00 36 1007.8
20260505200746 56 303 0.0 2.0 0.00 0.00 0.00 36 1007.8
20260505195745 56 312 0.0 4.0 0.00 0.00 0.00 35 1007.8
20260505195246 57 231 0.0 4.0 0.00 0.00 0.00 33 1007.8
20260505194746 57 276 0.0 1.0 0.00 0.00 0.00 37 1007.9
20260505193740 57 248 0.0 2.0 0.00 0.00 0.00 35 1007.9
20260505193233 57 308 0.0 9.0 0.00 0.00 0.00 37 1008.0
20260505191716 57 315 0.0 4.0 0.00 0.00 0.00 33 1008.1
20260505190703 57 195 0.0 0.0 0.00 0.00 0.00 37 1008.2
20260505190158 56 206 0.0 3.0 0.00 0.00 0.00 36 1008.1
20260505185651 56 341 0.0 3.0 0.00 0.00 0.00 35 1008.2
20260505185145 56 285 0.0 3.0 0.00 0.00 0.00 34 1008.1
20260505183627 56 232 0.0 13.0 0.00 0.00 0.00 40 1008.0
20260505183121 56 257 0.0 13.0 0.00 0.00 0.00 35 1008.0
20260505182615 56 262 1.0 9.0 0.00 0.00 0.00 34 1008.0
20260505182109 56 297 1.0 9.0 0.00 0.00 0.00 33 1008.0
20260505181058 57 253 0.0 2.0 0.00 0.00 0.00 35 1008.0
20260505180552 57 301 0.0 2.0 0.00 0.00 0.00 39 1008.0
20260505180045 56 271 0.0 5.0 0.00 0.00 0.00 35 1007.7
20260505175539 56 279 0.0 5.0 0.00 0.00 0.00 35 1007.8
20260505175033 56 321 0.0 4.0 0.00 0.00 0.00 36 1007.7
20260505174527 55 322 0.0 5.0 0.00 0.00 0.00 34 1007.6
20260505174021 55 237 0.0 5.0 0.00 0.00 0.00 34 1007.6
20260505173515 55 272 0.0 0.0 0.00 0.00 0.00 36 1007.6
20260505173010 55 301 0.0 8.0 0.00 0.00 0.00 37 1007.6
20260505171958 54 216 0.0 0.0 0.00 0.00 0.00 39 1007.7
20260505171452 54 268 0.0 1.0 0.00 0.00 0.00 37 1007.7
20260505170945 54 284 0.0 1.0 0.00 0.00 0.00 39 1007.7
20260505170439 54 277 0.0 0.0 0.00 0.00 0.00 39 1007.7
20260505165427 54 309 0.0 7.0 0.00 0.00 0.00 40 1008.0
20260505164921 54 251 0.0 7.0 0.00 0.00 0.00 37 1008.0
20260505164415 54 274 0.0 2.0 0.00 0.00 0.00 41 1007.8
20260505163910 53 324 0.0 2.0 0.00 0.00 0.00 40 1007.7
20260505162858 53 310 0.0 1.0 0.00 0.00 0.00 37 1007.6
20260505162352 54 278 0.0 4.0 0.00 0.00 0.00 40 1007.4
20260505161340 53 216 0.0 3.0 0.00 0.00 0.00 42 1007.4
20260505160833 53 266 0.0 2.0 0.00 0.00 0.00 41 1007.6
20260505160328 53 299 0.0 0.0 0.00 0.00 0.00 44 1007.6
20260505153252 52 262 0.0 0.0 0.00 0.00 0.00 43 1007.4
20260505151733 51 297 0.0 1.0 0.00 0.00 0.00 47 1007.7
20260505150721 51 261 0.0 0.0 0.00 0.00 0.00 45 1007.7
20260505150215 50 260 0.0 0.0 0.00 0.00 0.00 45 1007.8
20260505140154 49 171 0.0 0.0 0.00 0.00 0.00 50 1007.9
20260505124624 48 256 0.0 0.0 0.00 0.00 0.00 56 1007.4
20260505124119 48 256 0.0 0.0 0.00 0.00 0.00 57 1007.6
20260505123613 48 254 0.0 0.0 0.00 0.00 0.00 57 1007.6
20260505122601 47 255 0.0 0.0 0.00 0.00 0.00 59 1007.6
20260505121549 47 255 0.0 0.0 0.00 0.00 0.00 56 1007.8
20260505120537 47 254 0.0 0.0 0.00 0.00 0.00 56 1007.4
20260505120030 47 254 0.0 0.0 0.00 0.00 0.00 58 1007.6
20260505115018 47 254 0.0 0.0 0.00 0.00 0.00 58 1007.9
20260505114006 47 254 0.0 0.0 0.00 0.00 0.00 59 1007.3
20260505112954 47 232 0.0 0.0 0.00 0.00 0.00 58 1006.8
20260505112449 47 208 0.0 0.0 0.00 0.00 0.00 61 1006.5
20260505111942 47 185 0.0 0.0 0.00 0.00 0.00 61 1006.0
20260505111437 47 185 0.0 0.0 0.00 0.00 0.00 61 1006.5
20260505110930 47 185 0.0 0.0 0.00 0.00 0.00 61 1005.3
20260505110425 47 185 0.0 0.0 0.00 0.00 0.00 61 1005.7
20260505101325 47 185 0.0 0.0 0.00 0.00 0.00 60 1005.9
20260505100818 47 185 0.0 0.0 0.00 0.00 0.00 64 1005.6
20260505095806 48 185 0.0 0.0 0.00 0.00 0.00 61 1005.0
20260505095300 48 185 0.0 0.0 0.00 0.00 0.00 58 1005.0
20260505094758 48 185 0.0 0.0 0.00 0.00 0.00 61 1005.0
20260505094257 48 185 0.0 0.0 0.00 0.00 0.00 59 1005.1
20260505093757 48 185 0.0 0.0 0.00 0.00 0.00 59 1005.0
20260505093253 48 185 0.0 0.0 0.00 0.00 0.00 61 1005.1
20260505092753 49 185 0.0 0.0 0.00 0.00 0.00 60 1004.9
20260505092250 49 185 0.0 0.0 0.00 0.00 0.00 59 1005.1
20260505091749 49 299 0.0 0.0 0.00 0.00 0.00 58 1004.9
20260505090746 49 282 0.0 1.0 0.00 0.00 0.00 58 1005.1
20260505090245 48 289 0.0 1.0 0.00 0.00 0.00 58 1004.9
20260505085744 48 285 0.0 0.0 0.00 0.00 0.00 58 1004.5
20260505084741 49 285 0.0 0.0 0.00 0.00 0.00 57 1004.4
20260505084241 49 251 0.0 0.0 0.00 0.00 0.00 56 1004.3
20260505083740 49 251 0.0 0.0 0.00 0.00 0.00 56 1004.4
20260505083239 49 244 0.0 0.0 0.00 0.00 0.00 57 1004.3
20260505082737 50 256 0.0 0.0 0.00 0.00 0.00 56 1003.8
20260505082235 50 256 0.0 0.0 0.00 0.00 0.00 55 1003.6
20260505081230 50 247 0.0 1.0 0.00 0.00 0.00 55 1003.7
20260505080728 51 247 0.0 1.0 0.00 0.00 0.00 55 1003.6
20260505080229 51 289 0.0 0.0 0.00 0.00 0.00 55 1003.4
20260505075723 52 290 0.0 0.0 0.00 0.00 0.00 57 1003.3
20260505075225 52 290 0.0 0.0 0.00 0.00 0.00 56 1003.3
20260505074724 52 290 0.0 0.0 0.00 0.00 0.00 54 1002.9
20260505074224 53 293 0.0 1.0 0.00 0.00 0.00 55 1002.9
20260505073223 53 151 0.0 1.0 0.00 0.00 0.00 53 1002.4
20260505072725 54 196 0.0 1.0 0.00 0.00 0.00 51 1002.4
20260505072223 54 289 0.0 0.0 0.00 0.00 0.00 51 1002.3
20260505071224 54 285 0.0 1.0 0.00 0.00 0.00 50 1002.2
20260505070723 55 283 0.0 0.0 0.00 0.00 0.00 49 1002.1
20260505070223 55 280 0.0 0.0 0.00 0.00 0.00 47 1001.9
20260505065724 55 332 0.0 2.0 0.00 0.00 0.00 47 1002.1
20260505065222 55 277 0.0 2.0 0.00 0.00 0.00 47 1002.0
20260505064724 55 281 0.0 1.0 0.00 0.00 0.00 47 1001.8
20260505063724 56 277 0.0 0.0 0.00 0.00 0.00 45 1001.7
20260505063222 56 287 0.0 0.0 0.00 0.00 0.00 45 1001.6
20260505062715 56 287 0.0 0.0 0.00 0.00 0.00 45 1001.7
20260505062209 56 291 0.0 0.0 0.00 0.00 0.00 44 1001.7
20260505061157 57 304 0.0 1.0 0.00 0.00 0.00 43 1001.6
20260505060652 57 279 0.0 0.0 0.00 0.00 0.00 42 1001.6
20260505060146 57 296 0.0 0.0 0.00 0.00 0.00 43 1001.4
20260505055639 58 307 0.0 1.0 0.00 0.00 0.00 42 1001.4
20260505055133 58 265 0.0 1.0 0.00 0.00 0.00 41 1001.3
20260505054628 58 311 0.0 1.0 0.00 0.00 0.00 42 1001.3
20260505054121 58 295 0.0 1.0 0.00 0.00 0.00 42 1001.3
20260505053615 58 301 0.0 0.0 0.00 0.00 0.00 40 1001.2
20260505052603 59 246 0.0 1.0 0.00 0.00 0.00 40 1001.3
20260505052058 59 296 0.0 1.0 0.00 0.00 0.00 40 1001.3
20260505051552 59 299 0.0 2.0 0.00 0.00 0.00 39 1001.2
20260505051045 59 301 0.0 6.0 0.00 0.00 0.00 39 1001.0
20260505050540 59 290 0.0 6.0 0.00 0.00 0.00 39 1000.9
20260505041438 61 314 0.0 4.0 0.00 0.00 0.00 35 1000.5
20260505040933 61 280 0.0 4.0 0.00 0.00 0.00 35 1000.4
20260505040426 62 282 0.0 3.0 0.00 0.00 0.00 36 1000.4
20260505035920 62 272 0.0 3.0 0.00 0.00 0.00 36 1000.3
20260505034909 62 287 0.0 6.0 0.00 0.00 0.00 37 1000.1
20260505034402 63 313 0.0 7.0 0.00 0.00 0.00 36 1000.0
20260505033350 63 287 0.0 1.0 0.00 0.00 0.00 40 999.8
20260505032844 64 277 0.0 1.0 0.00 0.00 0.00 40 999.7
20260505032339 64 289 0.0 1.0 0.00 0.00 0.00 38 999.6
20260505031832 64 266 0.0 2.0 0.00 0.00 0.00 39 999.4
20260505031326 65 286 0.0 13.0 0.00 0.00 0.00 39 999.3
20260505030821 65 306 0.0 13.0 0.00 0.00 0.00 38 999.4
20260505030314 65 291 0.0 1.0 0.00 0.00 0.00 40 999.4
20260505025808 66 292 0.0 0.0 0.00 0.00 0.00 38 999.4
20260505024756 67 291 0.0 9.0 0.00 0.00 0.00 37 999.4
20260505024251 67 135 0.0 7.0 0.00 0.00 0.00 37 999.2
20260505023745 68 298 0.0 7.0 0.00 0.00 0.00 37 999.0
20260505023239 68 276 0.0 4.0 0.00 0.00 0.00 38 998.9
20260505022738 68 286 0.0 7.0 0.00 0.00 0.00 39 998.9
20260505021737 68 300 0.0 2.0 0.00 0.00 0.00 44 998.6
20260505021237 68 308 0.0 2.0 0.00 0.00 0.00 48 998.6
20260505020737 68 275 0.0 3.0 0.00 0.00 0.00 52 998.5
20260505020237 68 284 0.0 3.0 0.00 0.00 0.00 52 998.5
20260505015237 68 228 0.0 5.0 0.00 0.00 0.00 52 998.1
20260505014734 68 249 0.0 5.0 0.00 0.00 0.00 53 997.7
20260505014233 68 18 0.0 0.0 0.00 0.00 0.00 53 997.4
20260505013729 68 165 0.0 0.0 0.00 0.00 0.00 53 997.2
20260505013229 68 167 0.0 2.0 0.00 0.00 0.00 52 997.0
20260505012729 68 177 0.0 2.0 0.00 0.00 0.00 52 996.9
20260505011729 69 148 0.0 1.0 0.00 0.00 0.00 51 996.9
20260505011227 69 147 0.0 1.0 0.00 0.00 0.00 49 996.9
20260505010729 69 147 0.0 1.0 0.00 0.00 0.00 48 996.8
20260505005729 69 148 0.0 2.0 0.00 0.00 0.00 47 996.7
20260505004727 69 146 0.0 1.0 0.00 0.00 0.00 47 996.2
20260505004227 70 146 0.0 1.0 0.00 0.00 0.00 47 996.0
20260505003728 70 190 0.0 0.0 0.00 0.00 0.00 48 995.8
20260505002727 70 190 0.0 0.0 0.00 0.00 0.00 48 995.6
20260505002227 70 190 0.0 0.0 0.00 0.00 0.00 47 995.6
20260505001727 70 190 0.0 0.0 0.00 0.00 0.00 47 995.4
20260505001228 71 152 0.0 1.0 0.00 0.00 0.00 49 995.4
20260505000728 71 152 0.0 1.0 0.00 0.00 0.00 48 995.4
20260505000228 71 150 0.0 0.0 0.00 0.00 0.00 48 995.2
20260504235728 72 143 0.0 0.0 0.00 0.00 0.00 48 995.2
20260504234728 72 142 0.0 0.0 0.00 0.00 0.00 45 995.2
20260504234226 72 141 0.0 0.0 0.00 0.00 0.00 44 995.3
20260504233224 73 141 0.0 0.0 0.00 0.00 0.00 43 995.4
20260504232211 73 210 0.0 1.0 0.00 0.00 0.00 42 995.8
20260504231159 73 216 0.0 1.0 0.00 0.00 0.00 41 995.9
20260504230147 73 231 0.0 7.0 0.00 0.00 0.00 41 996.2
20260504225641 73 240 0.0 7.0 0.00 0.00 0.00 40 996.2
20260504224629 74 212 0.0 10.0 0.00 0.00 0.00 40 996.6
20260504224124 74 265 0.0 3.0 0.00 0.00 0.00 41 996.3
20260504223618 74 260 0.0 2.0 0.00 0.00 0.00 44 996.3
20260504223111 74 245 0.0 2.0 0.00 0.00 0.00 44 996.3
20260504222605 73 288 0.0 1.0 0.00 0.00 0.00 41 996.2
20260504222059 74 245 0.0 1.0 0.00 0.00 0.00 46 996.3
20260504221048 76 268 0.0 4.0 0.00 0.00 0.00 40 996.4
20260504220035 78 56 0.0 2.0 0.00 0.00 0.00 34 996.3
20260504215023 79 224 0.0 9.0 0.00 0.00 0.00 33 996.3
20260504214517 79 242 1.0 9.0 0.00 0.00 0.00 33 996.1
20260504214012 79 251 1.0 5.0 0.00 0.00 0.00 32 996.2